www.pogodaiklimat.ru

Погода и климат >> Архив погоды >> Малайзия >> Malacca


ПОГОДА в Malacca

  • Прогноз погоды в Malacca
  • Монитор погоды в Malacca
  • Климат города

АРХИВ ПОГОДЫ в Malacca

Время (UTC), дата Ветер
(напр.,м/с)
 
Видим.   Явления Облачность Т
(С)
Тd
(С)
f
(%)
Тe
(С)
Тes
(С)
Комфортность P
(гПа)
Po
(гПа)
Тmin
(С)
Tmax
(С)
R
(мм)
R24
(мм)
S
(см)
09 11.08 ЮЗ 2 20 км мгла 6/3 660 м
[Cu Sc Ac trans Ci fib]
+32.6 +20.2 48 +39 +42 очень
душно
1008.0 1007.0
12 11.08 штиль 0 14 км мгла 8/3 840 м
[Sc diur, vesp Ac trans Ci fib]
+29.5 +23.1 69 +40 +40 очень
душно
1008.8 1007.8 +32.8
15 11.08 штиль 0 14 км зарница 8/3 500 м
[Cb cap Ac trans Ci fib]
+25.7 +23.2 86 +34 +34 очень
душно
1010.3 1009.3
18 11.08 штиль 0 14 км мгла 9/1 840 м
[Sc Ac lent Ci sp]
+25.1 +23.4 90 +34 +34 очень
душно
1010.4 1009.4
21 11.08 Ю 3 14 км мгла 9/1 840 м
[Sc Ac trans Ci sp]
+28.0 +22.3 71 +37 +37 очень
душно
1009.6 1008.6
00 12.08 ЮЗ 2 18 км мгла 8/1 540 м
[Cu hum Ac trans Ci fib]
+27.9 +20.6 65 +35 +35 очень
душно
1010.5 1009.5 +24.4
03 12.08 ЮЗ 3 18 км мгла 8/1 660 м
[Cu hum Ac trans Ci fib]
+30.8 +21.8 59 +39 +46 очень
душно
1011.5 1010.5
06 12.08 Ю 4 18 км мгла 8/3 600 м
[Cu hum Ac trans Ci fib]
+31.8 +22.2 57 +41 +47 опасность
перегрева
1009.7 1008.7
09 12.08 Ю 3 16 км мгла 9/3 600 м
[Cu hum Ac lent Ci fib]
+32.2 +22.9 58 +42 +45 опасность
перегрева
1007.7 1006.7
12 12.08 ЮВ 2 16 км мгла 8/1 600 м
[Cu hum Ac lent Ci fib]
+29.7 +24.7 75 +42 +42 опасность
перегрева
1008.4 1007.4 +32.6
15 12.08 штиль 0 15 км мгла 8/1 900 м
[Sc Ac trans Ci sp]
+27.3 +24.7 86 +39 +39 очень
душно
1010.5 1009.5
18 12.08 штиль 0 14 км мгла 9/1 840 м
[Sc Ac trans Ci sp]
+25.5 +24.2 93 +35 +35 очень
душно
1010.3 1009.3
21 12.08 ЮЗ 2 13 км мгла 9/3 800 м
[Sc Ac trans Ci sp]
+27.4 +23.7 80 +37 +37 очень
душно
1009.2 1008.2
00 13.08 Ю 1 13 км мгла 8/1 660 м
[Cu hum Ac trans Ci fib]
+26.0 +22.9 83 +35 +35 очень
душно
1011.0 1010.0 +24.7
03 13.08 Ю 3 18 км мгла 6/3 600 м
[Cu hum Ac trans Ci fib]
+31.2 +22.0 58 +40 +47 очень
душно
1011.7 1010.7
06 13.08 Ю 3 18 км мгла 6/3 660 м
[Cu hum Ac trans Ci fib]
+31.7 +24.1 64 +44 +53 опасность
перегрева
1009.7 1008.7
09 13.08 Ю 2 18 км мгла 6/1 660 м
[Cu hum Ac trans Ci sp]
+32.0 +23.4 60 +43 +47 опасность
перегрева
1007.8 1006.8
12 13.08 В 1 14 км мгла 8/1 800 м
[Sc Ac As Ci sp]
+29.3 +24.8 77 +42 +42 опасность
перегрева
1008.7 1007.7 +32.3
15 13.08 ЮВ 1 14 км мгла 8/1 900 м
[Sc Ac trans Ci fib]
+27.8 +24.8 84 +40 +40 очень
душно
1010.3 1009.3
18 13.08 штиль 0 14 км мгла 6/3 840 м
[Sc Ac trans Ci fib]
+26.5 +24.8 90 +38 +38 очень
душно
1010.5 1009.5
21 13.08 штиль 0 12 км гроза без осадков {дождь} 9/4 360 м
[Cb cap Ac lent Ci sp]
+25.8 +24.6 93 +36 +36 очень
душно
1009.6 1008.6
00 14.08 З 1 9000 м мгла 9/3 540 м
[Cu Sc Ac lent Cs]
+27.5 +24.2 82 +38 +39 очень
душно
1010.5 1009.5 +25.7 0.2
03 14.08 Ю 4 14 км мгла 9/4 600 м
[Cu med, cong Ac trans Ci sp]
+30.6 +25.9 76 +46 +50 опасность
перегрева
1011.2 1010.2
06 14.08 Ю 3 18 км мгла 9/4 600 м
[Cu med, cong Ac trans Ci sp]
+31.2 +25.7 73 +46 +52 опасность
перегрева
1009.4 1008.4
09 14.08 Ю 3 18 км мгла 8/1 660 м
[Cu hum Ac trans Ci fib]
+31.7 +25.2 69 +46 +49 опасность
перегрева
1007.6 1006.6
12 14.08 ЮВ 1 14 км мгла 8/1 800 м
[Sc Ac trans Ci fib]
+29.7 +25.4 78 +44 +44 опасность
перегрева
1007.9 1006.9 +32.5
15 14.08 В 2 14 км мгла 6/1 900 м
[Sc Ac trans Ci sp]
+28.4 +25.1 82 +41 +41 опасность
перегрева
1010.5 1009.5
18 14.08 СВ 1 14 км зарница 8/1 500 м
[Cb cap Ac As Ci sp]
+26.6 +24.8 90 +38 +38 очень
душно
1010.3 1009.3
21 14.08 СЗ 1 9000 м гроза, ливневой дождь 9/4 500 м
[Cb cap Ac As Ci sp]
+26.7 +23.8 84 +37 +37 очень
душно
1010.2 1009.2
00 15.08 С 1 8000 м гроза, ливневой дождь 9/5 300 м
[Cb cap Ac As Ci sp]
+25.6 +24.7 95 +36 +37 очень
душно
1010.7 1009.7 +25.2 0.4
03 15.08 штиль 0 12 км мгла {гроза, дождь} 9/4 500 м
[Cb cap Ac lent Cs]
+26.6 +24.1 86 +37 +44 очень
душно
1011.8 1010.8
06 15.08 ЮВ 3 14 км мгла 9/3 600 м
[Cu hum Ac lent Cs]
+29.8 +25.6 78 +44 +51 опасность
перегрева
1009.8 1008.8 6
09 15.08 ЮВ 2 14 км мгла 9/3 600 м
[Cu hum Ac trans Cs]
+30.2 +25.5 76 +44 +47 опасность
перегрева
1007.7 1006.7
12 15.08 штиль 0 13 км мгла 9/1 800 м
[Sc Ac trans Ci sp]
+27.7 +25.9 90 +41 +41 опасность
перегрева
1008.5 1007.5 +30.5
15 15.08 В 2 14 км мгла 8/1 900 м
[Sc Ac trans Ci fib]
+27.1 +24.9 88 +39 +39 очень
душно
1009.7 1008.7
18 15.08 штиль 0 14 км мгла 8/1 840 м
[Sc Ac trans Ci fib]
+25.4 +24.6 95 +36 +36 очень
душно
1009.5 1008.5
21 15.08 штиль 0 9000 м мгла 9/3 900 м
[Sc Ac trans Ci sp]
+24.7 +23.9 95 +34 +34 очень
душно
1008.9 1007.9
00 16.08 СВ 1 5000 м мгла 9/3 540 м
[Cu Sc Ac trans Ci fib]
+25.0 +24.1 95 +34 +35 очень
душно
1010.0 1009.0 +24.4 6
03 16.08 В 1 9000 м мгла 9/3 600 м
[Cu hum Ac trans Ci fib]
+30.8 +25.7 74 +45 +52 опасность
перегрева
1010.5 1009.5
06 16.08 Ю 3 10 км мгла 9/3 600 м
[Cu hum Ac trans Ci fib]
+31.8 +24.4 65 +44 +51 опасность
перегрева
1008.3 1007.3
09 16.08 Ю 2 14 км мгла 8/3 500 м
[Cb calv Ac trans Ci fib]
+32.1 +24.9 66 +46 +48 опасность
перегрева
1006.3 1005.3
12 16.08 штиль 0 12 км зарница 9/3 500 м
[Cb cap Ac trans Ci sp]
+29.2 +26.2 84 +44 +44 опасность
перегрева
1007.0 1006.0 +32.8
15 16.08 штиль 0 12 км мгла 9/3 900 м
[Sc Ac trans Ci sp]
+27.3 +25.6 90 +40 +40 очень
душно
1008.6 1007.6
18 16.08 СВ 1 12 км мгла 9/1 840 м
[Sc Ac trans Ci sp]
+27.1 +25.7 92 +40 +40 очень
душно
1008.5 1007.5
21 16.08 З 2 10 км зарница 9/4 500 м
[Cb cap Ac lent Cs]
+26.2 +23.0 83 +35 +35 очень
душно
1007.7 1006.7
00 17.08 ЮЗ 3 13 км мгла 9/4 600 м
[Cu Sc Ac lent Cs]
+26.7 +23.0 80 +36 +36 очень
душно
1009.2 1008.2 +25.0
03 17.08 Ю 1 14 км мгла 9/4 600 м
[Cu med, cong Ac trans Ci sp]
+29.7 +22.7 66 +39 +45 очень
душно
1009.7 1008.7
06 17.08 Ю 2 9000 м мгла 9/4 600 м
[Cu med, cong Ac trans Ci sp]
+29.8 +23.5 69 +40 +48 очень
душно
1007.6 1006.6
09 17.08 Ю 2 14 км мгла 9/3 630 м
[Cu med, cong Ac lent Ci sp]
+30.2 +23.6 68 +41 +44 опасность
перегрева
1005.7 1004.7
12 17.08 ЮВ 1 12 км мгла 9/1 840 м
[Sc Ac As Ci sp]
+28.9 +24.9 79 +41 +41 опасность
перегрева
1006.8 1005.8 +31.3
15 17.08 ЮВ 1 12 км мгла 9/3 900 м
[Sc Ac und Ci sp]
+28.4 +25.5 84 +42 +42 опасность
перегрева
1008.5 1007.5
18 17.08 штиль 0 12 км мгла 9/3 840 м
[Sc Ac lent Ci sp]
+26.2 +24.8 92 +37 +37 очень
душно
1008.3 1007.3
21 17.08 СВ 1 12 км мгла 8/3 840 м
[Sc Ac lent Ci sp]
+25.5 +24.3 93 +35 +35 очень
душно
1008.0 1007.0
00 18.08 штиль 0 3000 м мгла 9/3 300 м
[Sc Ac lent Ci sp]
+25.7 +24.8 95 +36 +37 очень
душно
1009.5 1008.5 +24.9
03 18.08 Ю 4 16 км мгла 9/4 600 м
[Cb calv Ac lent Ci sp]
+30.3 +24.6 72 +43 +47 опасность
перегрева
1009.5 1008.5

 

Местоположение метеостанции Malacca (Малайзия): широта 2.27 долгота 102.25 высота над уровнем моря 9 м.

В архиве по умолчанию представлена погода в Malacca за последнюю неделю. Архивные данные за месяц целиком и за предыдущие месяцы, начиная с января 2011 года, Вы можете получить, выбрав интересующий диапазон дат из раскрывающегося списка и нажав кнопку "Ввод!".


*Определитесь, кто Вы:
робот инопланетянин человек

Внимание! Время в таблицах - всемирное. Для получения местного времени необходимо прибавить поправку, которая в Malacca равна 7 ч.

Смотрите также архив погоды в соседних городах и на ближайших метеорологических станциях:

Погода в Kuala Lumpur Int Airport (Малайзия) (79 км)
Погода в Kuala Lumpur (Малайзия) (122 км)
Погода в Johore Bharu / Senai (Малайзия) (173 км)
Погода в Kuantan (Малайзия) (199 км)
Погода в Singapore (Сингапур) (217 км)
Погода в Pekanbaru (Индонезия) (219 км)
Погода в Batam Hang Nadim Airport (Индонезия) (243 км)
Погода в Cameron Highlands (Малайзия) (263 км)
Погода в Sitiawan (Малайзия) (277 км)
Погода в Ipoh (Малайзия) (286 км)

Пояснения к столбцам:

Ветер - указаны скорость ветра в м/с - средняя за 10 мин, порывы в срок и между сроками (в фигурных скобках) и направление, откуда дует ветер: С - северный, СВ - северо-восточный, В - восточный, ЮВ - юго-восточный, Ю - южный, ЮЗ - юго-западный, З - западный, СЗ - северо-западный.
Видимость - горизонтальная дальность видимости в метрах или километрах. При видимости от 1 до 10 км при отсутствии осадков обычно наблюдается дымка, при ухудшении видимости до 1 км и менее - туман. В сухую погоду видимость может ухудшаться дымом, пылью или мглою.
Явления - указаны атмосферные явления, наблюдавшиеся в срок или в последний час перед сроком; фигурными скобками обозначены явления, наблюдавшиеся между сроками (за 1-3 часа до срока); квадратными скобками обозначены град или гололедные отложения с указанием их диаметра в мм.
Облачность - указаны через наклонную черту общая и нижняя облачность в баллах и высота нижней границы облаков в метрах; квадратными скобками обозначены формы облаков: Ci - перистые, Cs - перисто-слоистые, Cc - перисто-кучевые, Ac - высококучевые, As - высокослоистые, Sc - слоисто-кучевые, Ns - слоисто-дождевые, Cu - кучевые, Cb - кучево-дождевые. Подробнее классификацию облаков см. в Атласе облаков (PDF).
T - Температура воздуха - температура, измеренная на высоте 2 м над землей.
Td - Температура точки росы - температура, при понижении до которой содержащийся в воздухе водяной пар достигнет насыщения.
f - Относительная влажность воздуха - влажноcть воздуха, измеренная на высоте 2 м над землей.
Te - Эффективная температура - температура, которую ощущает одетый по сезону человек в тени. Характеристика душности погоды. При расчете учитывается влияние влажности воздуха и скорости ветра на теплоощущения человека.
Tes - Эффективная температура на солнце - температура, которую ощущает человек, с поправкой на солнечный нагрев. Характеристика знойности погоды. Зависит от высоты солнца над горизонтом, облачности и скорости ветра. Ночью, в пасмурную погоду, а также при ветре 12 м/с и более поправка равна нулю.
P - Атмосферное давление - приведенное к уровню моря атмосферное давление.
Po - Атмосферное давление - измеренное на уровне метеостанции атмосферное давление.
Tmin - Минимальная температура - минимум температуры воздуха на высоте 2 м над землей.
Tmax - Максимальная температура - максимум температуры воздуха на высоте 2 м над землей.
R - Количество осадков - Количество выпавших осадков за период времени, мм. При наведении курсора мыши на число - период времени, за который выпало указанное количество осадков.
R24 - Количество осадков - Количество выпавших осадков за 24 часа, мм.
S - Снежный покров - Высота снежного покрова, см. При наведении курсора мыши на число - состояние снежного покрова и степень покрытия местности в баллах.